Location: Rodson Ranch
(38.7188°N, 119.3202°W)
Time: 17:29:34
(UTC+00:00)

Cosmos 1892 Rocket - Pass Details

Date: 29 October 2020
Orbit: 607 x 632 km, 82.5° (Epoch: 22 November)

Event Time Altitude Azimuth Distance (km) Brightness Sun altitude
Rises 12:16:02 0° 173° (S) 2,852 7.0 -25.0°
Reaches altitude 10° 12:18:17 10° 168° (SSE) 1,955 6.2 -24.6°
Maximum altitude 12:22:28 50° 93° (E) 782 4.4 -23.8°
Drops below altitude 10° 12:26:42 10° 18° (NNE) 1,982 6.4 -22.9°
Sets 12:28:59 0° 14° (NNE) 2,896 7.2 -22.5°
